Voltar ao catálogo

SL-8 R/B

AtivoLEO
NORAD 5847·ROCKET BODY·🇷🇺 Russia

Lançado Feb 25, 1972 de Plesetsk Cosmodrome

Loading…

Próximas Passagens (próximas 24 horas)

TLE

AtualizadoSource: Space-Track

Época: Sep 14, 2026, 05:49 UTC

1 05847U 72009B   26257.24282721  .00000051  00000-0  70905-4 0  9993
2 05847  74.0498 180.8517 0029186  76.8594  84.8309 13.79467166745269

Acompanhe SL-8 R/B em tempo real com AllMySat

Download on the App Store